Year,Month,Day,Hour,Minute,Value (Times are PST for temperature in C)
2016,04,03,00,00,7.80
2016,04,03,00,01,7.80
2016,04,03,00,02,7.80
2016,04,03,00,03,7.80
2016,04,03,00,04,7.80
2016,04,03,00,05,7.80
2016,04,03,00,06,7.70
2016,04,03,00,07,7.70
2016,04,03,00,08,7.70
2016,04,03,00,09,7.60
2016,04,03,00,10,7.60
2016,04,03,00,11,7.50
2016,04,03,00,12,7.50
2016,04,03,00,13,7.40
2016,04,03,00,14,7.40
2016,04,03,00,15,7.40
2016,04,03,00,16,7.40
2016,04,03,00,17,7.40
2016,04,03,00,18,7.40
2016,04,03,00,19,7.40
2016,04,03,00,20,7.40
2016,04,03,00,21,7.40
2016,04,03,00,22,7.30
2016,04,03,00,23,7.30
2016,04,03,00,24,7.30
2016,04,03,00,25,7.30
2016,04,03,00,26,7.20
2016,04,03,00,27,7.20
2016,04,03,00,28,7.20
2016,04,03,00,29,7.20
2016,04,03,00,30,7.20
2016,04,03,00,31,7.20
2016,04,03,00,32,7.20
2016,04,03,00,33,7.20
2016,04,03,00,34,7.10
2016,04,03,00,35,7.10
2016,04,03,00,36,7.10
2016,04,03,00,37,7.10
2016,04,03,00,38,7.10
2016,04,03,00,39,7.00
2016,04,03,00,40,7.00
2016,04,03,00,41,6.90
2016,04,03,00,42,6.90
2016,04,03,00,43,6.90
2016,04,03,00,44,6.80
2016,04,03,00,45,6.80
2016,04,03,00,46,6.80
2016,04,03,00,47,6.80
2016,04,03,00,48,6.80
2016,04,03,00,49,6.80
2016,04,03,00,50,6.80
2016,04,03,00,51,6.80
2016,04,03,00,52,6.80
2016,04,03,00,53,6.90
2016,04,03,00,54,6.90
2016,04,03,00,55,6.90
2016,04,03,00,56,6.90
2016,04,03,00,57,6.90
2016,04,03,00,58,6.80
2016,04,03,00,59,6.80
2016,04,03,01,00,6.80
2016,04,03,01,01,6.70
2016,04,03,01,02,6.70
2016,04,03,01,03,6.70
2016,04,03,01,04,6.70
2016,04,03,01,05,6.70
2016,04,03,01,06,6.70
2016,04,03,01,07,6.70
2016,04,03,01,08,6.70
2016,04,03,01,09,6.70
2016,04,03,01,10,6.70
2016,04,03,01,11,6.70
2016,04,03,01,12,6.70
2016,04,03,01,13,6.70
2016,04,03,01,14,6.70
2016,04,03,01,15,6.70
2016,04,03,01,16,6.70
2016,04,03,01,17,6.70
2016,04,03,01,18,6.60
2016,04,03,01,19,6.60
2016,04,03,01,20,6.60
2016,04,03,01,21,6.60
2016,04,03,01,22,6.60
2016,04,03,01,23,6.50
2016,04,03,01,24,6.50
2016,04,03,01,25,6.40
2016,04,03,01,26,6.40
2016,04,03,01,27,6.40
2016,04,03,01,28,6.40
2016,04,03,01,29,6.40
2016,04,03,01,30,6.40
2016,04,03,01,31,6.40
2016,04,03,01,32,6.30
2016,04,03,01,33,6.30
2016,04,03,01,34,6.30
2016,04,03,01,35,6.30
2016,04,03,01,36,6.30
2016,04,03,01,37,6.30
2016,04,03,01,38,6.30
2016,04,03,01,39,6.40
2016,04,03,01,40,6.40
2016,04,03,01,41,6.40
2016,04,03,01,42,6.40
2016,04,03,01,43,6.30
2016,04,03,01,44,6.30
2016,04,03,01,45,6.30
2016,04,03,01,46,6.30
2016,04,03,01,47,6.30
2016,04,03,01,48,6.30
2016,04,03,01,49,6.30
2016,04,03,01,50,6.40
2016,04,03,01,51,6.40
2016,04,03,01,52,6.40
2016,04,03,01,53,6.40
2016,04,03,01,54,6.40
2016,04,03,01,55,6.30
2016,04,03,01,56,6.30
2016,04,03,01,57,6.30
2016,04,03,01,58,6.20
2016,04,03,01,59,6.20
2016,04,03,02,00,6.20
2016,04,03,02,01,6.20
2016,04,03,02,02,6.20
2016,04,03,02,03,6.20
2016,04,03,02,04,6.20
2016,04,03,02,05,6.20
2016,04,03,02,06,6.20
2016,04,03,02,07,6.20
2016,04,03,02,08,6.10
2016,04,03,02,09,6.20
2016,04,03,02,10,6.20
2016,04,03,02,11,6.10
2016,04,03,02,12,6.10
2016,04,03,02,13,6.10
2016,04,03,02,14,6.10
2016,04,03,02,15,6.10
2016,04,03,02,16,6.10
2016,04,03,02,17,6.10
2016,04,03,02,18,6.00
2016,04,03,02,19,6.00
2016,04,03,02,20,6.00
2016,04,03,02,21,6.00
2016,04,03,02,22,6.00
2016,04,03,02,23,6.00
2016,04,03,02,24,6.00
2016,04,03,02,25,6.00
2016,04,03,02,26,6.10
2016,04,03,02,27,6.10
2016,04,03,02,28,6.00
2016,04,03,02,29,6.00
2016,04,03,02,30,5.90
2016,04,03,02,31,5.90
2016,04,03,02,32,5.90
2016,04,03,02,33,5.90
2016,04,03,02,34,5.90
2016,04,03,02,35,5.90
2016,04,03,02,36,5.80
2016,04,03,02,37,5.80
2016,04,03,02,38,5.80
2016,04,03,02,39,5.80
2016,04,03,02,40,5.80
2016,04,03,02,41,5.80
2016,04,03,02,42,5.80
2016,04,03,02,43,5.80
2016,04,03,02,44,5.90
2016,04,03,02,45,5.90
2016,04,03,02,46,6.00
2016,04,03,02,47,6.00
2016,04,03,02,48,6.10
2016,04,03,02,49,6.10
2016,04,03,02,50,6.00
2016,04,03,02,51,6.00
2016,04,03,02,52,5.90
2016,04,03,02,53,5.90
2016,04,03,02,54,5.90
2016,04,03,02,55,5.80
2016,04,03,02,56,5.80
2016,04,03,02,57,5.80
2016,04,03,02,58,5.80
2016,04,03,02,59,5.80
2016,04,03,03,00,5.80
2016,04,03,03,01,5.80
2016,04,03,03,02,5.80
2016,04,03,03,03,5.90
2016,04,03,03,04,5.80
2016,04,03,03,05,5.80
2016,04,03,03,06,5.80
2016,04,03,03,07,5.80
2016,04,03,03,08,5.80
2016,04,03,03,09,5.80
2016,04,03,03,10,5.80
2016,04,03,03,11,5.80
2016,04,03,03,12,5.70
2016,04,03,03,13,5.80
2016,04,03,03,14,5.70
2016,04,03,03,15,5.70
2016,04,03,03,16,5.70
2016,04,03,03,17,5.70
2016,04,03,03,18,5.70
2016,04,03,03,19,5.80
2016,04,03,03,20,5.80
2016,04,03,03,21,5.80
2016,04,03,03,22,5.80
2016,04,03,03,23,5.80
2016,04,03,03,24,5.80
2016,04,03,03,25,5.80
2016,04,03,03,26,5.80
2016,04,03,03,27,5.80
2016,04,03,03,28,5.80
2016,04,03,03,29,5.80
2016,04,03,03,30,5.80
2016,04,03,03,31,5.80
2016,04,03,03,32,5.80
2016,04,03,03,33,5.70
2016,04,03,03,34,5.70
2016,04,03,03,35,5.70
2016,04,03,03,36,5.80
2016,04,03,03,37,5.80
2016,04,03,03,38,5.80
2016,04,03,03,39,5.90
2016,04,03,03,40,5.90
2016,04,03,03,41,5.90
2016,04,03,03,42,5.90
2016,04,03,03,43,5.90
2016,04,03,03,44,5.90
2016,04,03,03,45,5.90
2016,04,03,03,46,5.80
2016,04,03,03,47,5.80
2016,04,03,03,48,5.80
2016,04,03,03,49,5.80
2016,04,03,03,50,5.70
2016,04,03,03,51,5.70
2016,04,03,03,52,5.70
2016,04,03,03,53,5.70
2016,04,03,03,54,5.70
2016,04,03,03,55,5.70
2016,04,03,03,56,5.70
2016,04,03,03,57,5.70
2016,04,03,03,58,5.70
2016,04,03,03,59,5.70
2016,04,03,04,00,5.70
2016,04,03,04,01,5.70
2016,04,03,04,02,5.70
2016,04,03,04,03,5.70
2016,04,03,04,04,5.70
2016,04,03,04,05,5.70
2016,04,03,04,06,5.70
2016,04,03,04,07,5.70
2016,04,03,04,08,5.60
2016,04,03,04,09,5.60
2016,04,03,04,10,5.50
2016,04,03,04,11,5.50
2016,04,03,04,12,5.50
2016,04,03,04,13,5.50
2016,04,03,04,14,5.50
2016,04,03,04,15,5.40
2016,04,03,04,16,5.40
2016,04,03,04,17,5.50
2016,04,03,04,18,5.50
2016,04,03,04,19,5.50
2016,04,03,04,20,5.50
2016,04,03,04,21,5.50
2016,04,03,04,22,5.50
2016,04,03,04,23,5.50
2016,04,03,04,24,5.50
2016,04,03,04,25,5.50
2016,04,03,04,26,5.50
2016,04,03,04,27,5.50
2016,04,03,04,28,5.40
2016,04,03,04,29,5.40
2016,04,03,04,30,5.40
2016,04,03,04,31,5.50
2016,04,03,04,32,5.60
2016,04,03,04,33,5.60
2016,04,03,04,34,5.60
2016,04,03,04,35,5.60
2016,04,03,04,36,5.60
2016,04,03,04,37,5.60
2016,04,03,04,38,5.60
2016,04,03,04,39,5.60
2016,04,03,04,40,5.60
2016,04,03,04,41,5.60
2016,04,03,04,42,5.60
2016,04,03,04,43,5.60
2016,04,03,04,44,5.60
2016,04,03,04,45,5.60
2016,04,03,04,46,5.60
2016,04,03,04,47,5.70
2016,04,03,04,48,5.70
2016,04,03,04,49,5.70
2016,04,03,04,50,5.70
2016,04,03,04,51,5.70
2016,04,03,04,52,5.70
2016,04,03,04,53,5.70
2016,04,03,04,54,5.70
2016,04,03,04,55,5.60
2016,04,03,04,56,5.60
2016,04,03,04,57,5.60
2016,04,03,04,58,5.60
2016,04,03,04,59,5.60
2016,04,03,05,00,5.60
2016,04,03,05,01,5.60
2016,04,03,05,02,5.60
2016,04,03,05,03,5.60
2016,04,03,05,04,5.60
2016,04,03,05,05,5.60
2016,04,03,05,06,5.60
2016,04,03,05,07,5.60
2016,04,03,05,08,5.60
2016,04,03,05,09,5.60
2016,04,03,05,10,5.70
2016,04,03,05,11,5.70
2016,04,03,05,12,5.70
2016,04,03,05,13,5.70
2016,04,03,05,14,5.70
2016,04,03,05,15,5.60
2016,04,03,05,16,5.60
2016,04,03,05,17,5.60
2016,04,03,05,18,5.60
2016,04,03,05,19,5.60
2016,04,03,05,20,5.60
2016,04,03,05,21,5.60
2016,04,03,05,22,5.60
2016,04,03,05,23,5.60
2016,04,03,05,24,5.60
2016,04,03,05,25,5.60
2016,04,03,05,26,5.60
2016,04,03,05,27,5.60
2016,04,03,05,28,5.60
2016,04,03,05,29,5.60
2016,04,03,05,30,5.60
2016,04,03,05,31,5.60
2016,04,03,05,32,5.60
2016,04,03,05,33,5.60
2016,04,03,05,34,5.50
2016,04,03,05,35,5.50
2016,04,03,05,36,5.50
2016,04,03,05,37,5.50
2016,04,03,05,38,5.60
2016,04,03,05,39,5.50
2016,04,03,05,40,5.50
2016,04,03,05,41,5.50
2016,04,03,05,42,5.40
2016,04,03,05,43,5.40
2016,04,03,05,44,5.40
2016,04,03,05,45,5.40
2016,04,03,05,46,5.40
2016,04,03,05,47,5.40
2016,04,03,05,48,5.40
2016,04,03,05,49,5.40
2016,04,03,05,50,5.40
2016,04,03,05,51,5.30
2016,04,03,05,52,5.30
2016,04,03,05,53,5.30
2016,04,03,05,54,5.30
2016,04,03,05,55,5.30
2016,04,03,05,56,5.30
2016,04,03,05,57,5.30
2016,04,03,05,58,5.20
2016,04,03,05,59,5.20
2016,04,03,06,00,5.20
2016,04,03,06,01,5.20
2016,04,03,06,02,5.20
2016,04,03,06,03,5.10
2016,04,03,06,04,5.10
2016,04,03,06,05,5.10
2016,04,03,06,06,5.20
2016,04,03,06,07,5.20
2016,04,03,06,08,5.20
2016,04,03,06,09,5.20
2016,04,03,06,10,5.20
2016,04,03,06,11,5.20
2016,04,03,06,12,5.20
2016,04,03,06,13,5.20
2016,04,03,06,14,5.20
2016,04,03,06,15,5.20
2016,04,03,06,16,5.10
2016,04,03,06,17,5.10
2016,04,03,06,18,5.10
2016,04,03,06,19,5.10
2016,04,03,06,20,5.10
2016,04,03,06,21,5.10
2016,04,03,06,22,5.10
2016,04,03,06,23,5.10
2016,04,03,06,24,5.10
2016,04,03,06,25,5.20
2016,04,03,06,26,5.20
2016,04,03,06,27,5.20
2016,04,03,06,28,5.30
2016,04,03,06,29,5.20
2016,04,03,06,30,5.20
2016,04,03,06,31,5.20
2016,04,03,06,32,5.20
2016,04,03,06,33,5.20
2016,04,03,06,34,5.20
2016,04,03,06,35,5.20
2016,04,03,06,36,5.20
2016,04,03,06,37,5.30
2016,04,03,06,38,5.30
2016,04,03,06,39,5.30
2016,04,03,06,40,5.30
2016,04,03,06,41,5.30
2016,04,03,06,42,5.30
2016,04,03,06,43,5.30
2016,04,03,06,44,5.30
2016,04,03,06,45,5.30
2016,04,03,06,46,5.30
2016,04,03,06,47,5.30
2016,04,03,06,48,5.30
2016,04,03,06,49,5.40
2016,04,03,06,50,5.40
2016,04,03,06,51,5.40
2016,04,03,06,52,5.50
2016,04,03,06,53,5.50
2016,04,03,06,54,5.50
2016,04,03,06,55,5.50
2016,04,03,06,56,5.50
2016,04,03,06,57,5.50
2016,04,03,06,58,5.50
2016,04,03,06,59,5.50
2016,04,03,07,00,5.50
2016,04,03,07,01,5.60
2016,04,03,07,02,5.60
2016,04,03,07,03,5.60
2016,04,03,07,04,5.60
2016,04,03,07,05,5.70
2016,04,03,07,06,5.70
2016,04,03,07,07,5.70
2016,04,03,07,08,5.70
2016,04,03,07,09,5.70
2016,04,03,07,10,5.70
2016,04,03,07,11,5.80
2016,04,03,07,12,5.80
2016,04,03,07,13,5.80
2016,04,03,07,14,5.80
2016,04,03,07,15,5.90
2016,04,03,07,16,5.90
2016,04,03,07,17,5.90
2016,04,03,07,18,6.00
2016,04,03,07,19,6.00
2016,04,03,07,20,6.00
2016,04,03,07,21,6.00
2016,04,03,07,22,6.00
2016,04,03,07,23,6.00
2016,04,03,07,24,6.10
2016,04,03,07,25,6.10
2016,04,03,07,26,6.10
2016,04,03,07,27,6.10
2016,04,03,07,28,6.10
2016,04,03,07,29,6.10
2016,04,03,07,30,6.20
2016,04,03,07,31,6.20
2016,04,03,07,32,6.20
2016,04,03,07,33,6.20
2016,04,03,07,34,6.30
2016,04,03,07,35,6.30
2016,04,03,07,36,6.30
2016,04,03,07,37,6.30
2016,04,03,07,38,6.30
2016,04,03,07,39,6.30
2016,04,03,07,40,6.30
2016,04,03,07,41,6.30
2016,04,03,07,42,6.40
2016,04,03,07,43,6.40
2016,04,03,07,44,6.40
2016,04,03,07,45,6.40
2016,04,03,07,46,6.50
2016,04,03,07,47,6.50
2016,04,03,07,48,6.50
2016,04,03,07,49,6.50
2016,04,03,07,50,6.50
2016,04,03,07,51,6.60
2016,04,03,07,52,6.60
2016,04,03,07,53,6.60
2016,04,03,07,54,6.60
2016,04,03,07,55,6.60
2016,04,03,07,56,6.70
2016,04,03,07,57,6.70
2016,04,03,07,58,6.70
2016,04,03,07,59,6.80
2016,04,03,08,00,6.80
2016,04,03,08,01,6.80
2016,04,03,08,02,6.90
2016,04,03,08,03,6.90
2016,04,03,08,04,6.90
2016,04,03,08,05,6.90
2016,04,03,08,06,7.00
2016,04,03,08,07,7.00
2016,04,03,08,08,7.10
2016,04,03,08,09,7.10
2016,04,03,08,10,7.10
2016,04,03,08,11,7.20
2016,04,03,08,12,7.20
2016,04,03,08,13,7.20
2016,04,03,08,14,7.30
2016,04,03,08,15,7.30
2016,04,03,08,16,7.30
2016,04,03,08,17,7.30
2016,04,03,08,18,7.40
2016,04,03,08,19,7.40
2016,04,03,08,20,7.40
2016,04,03,08,21,7.50
2016,04,03,08,22,7.50
2016,04,03,08,23,7.50
2016,04,03,08,24,7.60
2016,04,03,08,25,7.60
2016,04,03,08,26,7.70
2016,04,03,08,27,7.70
2016,04,03,08,28,7.70
2016,04,03,08,29,7.80
2016,04,03,08,30,7.80
2016,04,03,08,31,7.80
2016,04,03,08,32,7.90
2016,04,03,08,33,7.90
2016,04,03,08,34,8.00
2016,04,03,08,35,8.10
2016,04,03,08,36,8.20
2016,04,03,08,37,8.20
2016,04,03,08,38,8.30
2016,04,03,08,39,8.30
2016,04,03,08,40,8.40
2016,04,03,08,41,8.50
2016,04,03,08,42,8.50
2016,04,03,08,43,8.60
2016,04,03,08,44,8.70
2016,04,03,08,45,8.80
2016,04,03,08,46,8.80
2016,04,03,08,47,8.90
2016,04,03,08,48,9.00
2016,04,03,08,49,9.00
2016,04,03,08,50,9.00
2016,04,03,08,51,9.10
2016,04,03,08,52,9.10
2016,04,03,08,53,9.10
2016,04,03,08,54,9.10
2016,04,03,08,55,9.10
2016,04,03,08,56,9.10
2016,04,03,08,57,9.10
2016,04,03,08,58,9.10
2016,04,03,08,59,9.10
2016,04,03,09,00,9.10
2016,04,03,09,01,9.20
2016,04,03,09,02,9.20
2016,04,03,09,03,9.20
2016,04,03,09,04,9.20
2016,04,03,09,05,9.30
2016,04,03,09,06,9.30
2016,04,03,09,07,9.30
2016,04,03,09,08,9.40
2016,04,03,09,09,9.40
2016,04,03,09,10,9.50
2016,04,03,09,11,9.60
2016,04,03,09,12,9.70
2016,04,03,09,13,9.70
2016,04,03,09,14,9.80
2016,04,03,09,15,9.90
2016,04,03,09,16,9.90
2016,04,03,09,17,10.00
2016,04,03,09,18,10.00
2016,04,03,09,19,10.10
2016,04,03,09,20,10.10
2016,04,03,09,21,10.20
2016,04,03,09,22,10.20
2016,04,03,09,23,10.20
2016,04,03,09,24,10.20
2016,04,03,09,25,10.20
2016,04,03,09,26,10.30
2016,04,03,09,27,10.30
2016,04,03,09,28,10.30
2016,04,03,09,29,10.40
2016,04,03,09,30,10.40
2016,04,03,09,31,10.40
2016,04,03,09,32,10.50
2016,04,03,09,33,10.50
2016,04,03,09,34,10.50
2016,04,03,09,35,10.60
2016,04,03,09,36,10.60
2016,04,03,09,37,10.60
2016,04,03,09,38,10.60
2016,04,03,09,39,10.70
2016,04,03,09,40,10.70
2016,04,03,09,41,10.70
2016,04,03,09,42,10.70
2016,04,03,09,43,10.80
2016,04,03,09,44,10.80
2016,04,03,09,45,10.80
2016,04,03,09,46,10.80
2016,04,03,09,47,10.90
2016,04,03,09,48,10.90
2016,04,03,09,49,10.90
2016,04,03,09,50,11.00
2016,04,03,09,51,11.00
2016,04,03,09,52,11.10
2016,04,03,09,53,11.20
2016,04,03,09,54,11.20
2016,04,03,09,55,11.30
2016,04,03,09,56,11.30
2016,04,03,09,57,11.40
2016,04,03,09,58,11.40
2016,04,03,09,59,11.50
2016,04,03,10,00,11.50
2016,04,03,10,01,11.60
2016,04,03,10,02,11.60
2016,04,03,10,03,11.60
2016,04,03,10,04,11.60
2016,04,03,10,05,11.60
2016,04,03,10,06,11.70
2016,04,03,10,07,11.70
2016,04,03,10,08,11.60
2016,04,03,10,09,11.60
2016,04,03,10,10,11.70
2016,04,03,10,11,11.70
2016,04,03,10,12,11.70
2016,04,03,10,13,11.70
2016,04,03,10,14,11.70
2016,04,03,10,15,11.70
2016,04,03,10,16,11.70
2016,04,03,10,17,11.70
2016,04,03,10,18,11.70
2016,04,03,10,19,11.60
2016,04,03,10,20,11.60
2016,04,03,10,21,11.60
2016,04,03,10,22,11.50
2016,04,03,10,23,11.50
2016,04,03,10,24,11.40
2016,04,03,10,25,11.40
2016,04,03,10,26,11.40
2016,04,03,10,27,11.40
2016,04,03,10,28,11.40
2016,04,03,10,29,11.40
2016,04,03,10,30,11.50
2016,04,03,10,31,11.60
2016,04,03,10,32,11.70
2016,04,03,10,33,11.70
2016,04,03,10,34,11.70
2016,04,03,10,35,11.70
2016,04,03,10,36,11.60
2016,04,03,10,37,11.50
2016,04,03,10,38,11.30
2016,04,03,10,39,11.30
2016,04,03,10,40,11.30
2016,04,03,10,41,11.30
2016,04,03,10,42,11.30
2016,04,03,10,43,11.30
2016,04,03,10,44,11.30
2016,04,03,10,45,11.40
2016,04,03,10,46,11.40
2016,04,03,10,47,11.50
2016,04,03,10,48,11.60
2016,04,03,10,49,11.70
2016,04,03,10,50,11.70
2016,04,03,10,51,11.80
2016,04,03,10,52,11.80
2016,04,03,10,53,11.80
2016,04,03,10,54,11.90
2016,04,03,10,55,11.90
2016,04,03,10,56,12.10
2016,04,03,10,57,12.20
2016,04,03,10,58,12.30
2016,04,03,10,59,12.50
2016,04,03,11,00,12.60
2016,04,03,11,01,12.70
2016,04,03,11,02,12.80
2016,04,03,11,03,12.90
2016,04,03,11,04,13.00
2016,04,03,11,05,13.00
2016,04,03,11,06,13.00
2016,04,03,11,07,13.00
2016,04,03,11,08,13.00
2016,04,03,11,09,13.00
2016,04,03,11,10,13.00
2016,04,03,11,11,13.00
2016,04,03,11,12,13.10
2016,04,03,11,13,13.10
2016,04,03,11,14,13.10
2016,04,03,11,15,13.10
2016,04,03,11,16,13.00
2016,04,03,11,17,13.00
2016,04,03,11,18,13.00
2016,04,03,11,19,13.00
2016,04,03,11,20,13.00
2016,04,03,11,21,13.10
2016,04,03,11,22,13.10
2016,04,03,11,23,13.20
2016,04,03,11,24,13.20
2016,04,03,11,25,13.30
2016,04,03,11,26,13.30
2016,04,03,11,27,13.40
2016,04,03,11,28,13.50
2016,04,03,11,29,13.50
2016,04,03,11,30,13.60
2016,04,03,11,31,13.70
2016,04,03,11,32,13.70
2016,04,03,11,33,13.80
2016,04,03,11,34,13.80
2016,04,03,11,35,13.80
2016,04,03,11,36,13.80
2016,04,03,11,37,13.90
2016,04,03,11,38,13.90
2016,04,03,11,39,13.90
2016,04,03,11,40,13.90
2016,04,03,11,41,13.90
2016,04,03,11,42,13.90
2016,04,03,11,43,13.90
2016,04,03,11,44,13.90
2016,04,03,11,45,13.90
2016,04,03,11,46,13.90
2016,04,03,11,47,13.90
2016,04,03,11,48,13.90
2016,04,03,11,49,14.00
2016,04,03,11,50,14.00
2016,04,03,11,51,14.00
2016,04,03,11,52,14.00
2016,04,03,11,53,13.90
2016,04,03,11,54,13.90
2016,04,03,11,55,13.90
2016,04,03,11,56,13.90
2016,04,03,11,57,13.90
2016,04,03,11,58,13.90
2016,04,03,11,59,14.00
2016,04,03,12,00,14.00
2016,04,03,12,01,14.10
2016,04,03,12,02,14.10
2016,04,03,12,03,14.10
2016,04,03,12,04,14.10
2016,04,03,12,05,14.10
2016,04,03,12,06,14.10
2016,04,03,12,07,14.10
2016,04,03,12,08,14.00
2016,04,03,12,09,14.00
2016,04,03,12,10,13.90
2016,04,03,12,11,13.90
2016,04,03,12,12,13.80
2016,04,03,12,13,13.80
2016,04,03,12,14,13.80
2016,04,03,12,15,13.80
2016,04,03,12,16,13.80
2016,04,03,12,17,13.80
2016,04,03,12,18,13.90
2016,04,03,12,19,13.90
2016,04,03,12,20,14.00
2016,04,03,12,21,14.00
2016,04,03,12,22,14.10
2016,04,03,12,23,14.10
2016,04,03,12,24,14.20
2016,04,03,12,25,14.20
2016,04,03,12,26,14.30
2016,04,03,12,27,14.40
2016,04,03,12,28,14.40
2016,04,03,12,29,14.50
2016,04,03,12,30,14.60
2016,04,03,12,31,14.60
2016,04,03,12,32,14.70
2016,04,03,12,33,14.70
2016,04,03,12,34,14.70
2016,04,03,12,35,14.70
2016,04,03,12,36,14.70
2016,04,03,12,37,14.70
2016,04,03,12,38,14.60
2016,04,03,12,39,14.50
2016,04,03,12,40,14.40
2016,04,03,12,41,14.30
2016,04,03,12,42,14.30
2016,04,03,12,43,14.40
2016,04,03,12,44,14.40
2016,04,03,12,45,14.50
2016,04,03,12,46,14.60
2016,04,03,12,47,14.60
2016,04,03,12,48,14.60
2016,04,03,12,49,14.60
2016,04,03,12,50,14.60
2016,04,03,12,51,14.60
2016,04,03,12,52,14.70
2016,04,03,12,53,14.70
2016,04,03,12,54,14.80
2016,04,03,12,55,14.80
2016,04,03,12,56,14.80
2016,04,03,12,57,14.90
2016,04,03,12,58,14.90
2016,04,03,12,59,14.90
2016,04,03,13,00,14.90
2016,04,03,13,01,14.90
2016,04,03,13,02,14.90
2016,04,03,13,03,14.80
2016,04,03,13,04,14.90
2016,04,03,13,05,14.90
2016,04,03,13,06,15.00
2016,04,03,13,07,15.00
2016,04,03,13,08,15.10
2016,04,03,13,09,15.10
2016,04,03,13,10,15.10
2016,04,03,13,11,15.10
2016,04,03,13,12,15.00
2016,04,03,13,13,15.00
2016,04,03,13,14,15.00
2016,04,03,13,15,15.00
2016,04,03,13,16,15.00
2016,04,03,13,17,15.10
2016,04,03,13,18,15.10
2016,04,03,13,19,15.10
2016,04,03,13,20,15.00
2016,04,03,13,21,14.90
2016,04,03,13,22,14.80
2016,04,03,13,23,14.70
2016,04,03,13,24,14.60
2016,04,03,13,25,14.60
2016,04,03,13,26,14.60
2016,04,03,13,27,14.70
2016,04,03,13,28,14.70
2016,04,03,13,29,14.70
2016,04,03,13,30,14.80
2016,04,03,13,31,14.80
2016,04,03,13,32,14.90
2016,04,03,13,33,15.00
2016,04,03,13,34,15.10
2016,04,03,13,35,15.30
2016,04,03,13,36,15.40
2016,04,03,13,37,15.60
2016,04,03,13,38,15.60
2016,04,03,13,39,15.70
2016,04,03,13,40,15.70
2016,04,03,13,41,15.70
2016,04,03,13,42,15.70
2016,04,03,13,43,15.80
2016,04,03,13,44,15.80
2016,04,03,13,45,15.80
2016,04,03,13,46,15.90
2016,04,03,13,47,15.90
2016,04,03,13,48,16.00
2016,04,03,13,49,16.10
2016,04,03,13,50,16.10
2016,04,03,13,51,16.20
2016,04,03,13,52,16.10
2016,04,03,13,53,16.10
2016,04,03,13,54,16.10
2016,04,03,13,55,16.10
2016,04,03,13,56,16.10
2016,04,03,13,57,16.20
2016,04,03,13,58,16.20
2016,04,03,13,59,16.10
2016,04,03,14,00,16.00
2016,04,03,14,01,15.90
2016,04,03,14,02,15.90
2016,04,03,14,03,15.80
2016,04,03,14,04,15.70
2016,04,03,14,05,15.70
2016,04,03,14,06,15.70
2016,04,03,14,07,15.70
2016,04,03,14,08,15.70
2016,04,03,14,09,15.70
2016,04,03,14,10,15.70
2016,04,03,14,11,15.70
2016,04,03,14,12,15.70
2016,04,03,14,13,15.60
2016,04,03,14,14,15.50
2016,04,03,14,15,15.40
2016,04,03,14,16,15.40
2016,04,03,14,17,15.40
2016,04,03,14,18,15.40
2016,04,03,14,19,15.50
2016,04,03,14,20,15.40
2016,04,03,14,21,15.50
2016,04,03,14,22,15.40
2016,04,03,14,23,15.40
2016,04,03,14,24,15.30
2016,04,03,14,25,15.20
2016,04,03,14,26,15.20
2016,04,03,14,27,15.20
2016,04,03,14,28,15.20
2016,04,03,14,29,15.20
2016,04,03,14,30,15.20
2016,04,03,14,31,15.20
2016,04,03,14,32,15.20
2016,04,03,14,33,15.20
2016,04,03,14,34,15.20
2016,04,03,14,35,15.20
2016,04,03,14,36,15.20
2016,04,03,14,37,15.20
2016,04,03,14,38,15.10
2016,04,03,14,39,15.00
2016,04,03,14,40,14.90
2016,04,03,14,41,14.80
2016,04,03,14,42,14.70
2016,04,03,14,43,14.60
2016,04,03,14,44,14.60
2016,04,03,14,45,14.50
2016,04,03,14,46,14.50
2016,04,03,14,47,14.50
2016,04,03,14,48,14.60
2016,04,03,14,49,14.60
2016,04,03,14,50,14.40
2016,04,03,14,51,14.30
2016,04,03,14,52,14.30
2016,04,03,14,53,14.20
2016,04,03,14,54,14.30
2016,04,03,14,55,14.40
2016,04,03,14,56,14.40
2016,04,03,14,57,14.50
2016,04,03,14,58,14.60
2016,04,03,14,59,14.60
2016,04,03,15,00,14.60
2016,04,03,15,01,14.50
2016,04,03,15,02,14.50
2016,04,03,15,03,14.40
2016,04,03,15,04,14.40
2016,04,03,15,05,14.40
2016,04,03,15,06,14.50
2016,04,03,15,07,14.50
2016,04,03,15,08,14.70
2016,04,03,15,09,14.80
2016,04,03,15,10,14.90
2016,04,03,15,11,15.00
2016,04,03,15,12,15.10
2016,04,03,15,13,15.10
2016,04,03,15,14,15.10
2016,04,03,15,15,15.10
2016,04,03,15,16,15.10
2016,04,03,15,17,15.10
2016,04,03,15,18,15.00
2016,04,03,15,19,15.00
2016,04,03,15,20,14.90
2016,04,03,15,21,14.90
2016,04,03,15,22,14.90
2016,04,03,15,23,14.90
2016,04,03,15,24,14.90
2016,04,03,15,25,14.80
2016,04,03,15,26,14.80
2016,04,03,15,27,14.80
2016,04,03,15,28,14.80
2016,04,03,15,29,14.80
2016,04,03,15,30,14.80
2016,04,03,15,31,14.80
2016,04,03,15,32,14.90
2016,04,03,15,33,14.90
2016,04,03,15,34,15.00
2016,04,03,15,35,15.10
2016,04,03,15,36,15.10
2016,04,03,15,37,15.20
2016,04,03,15,38,15.30
2016,04,03,15,39,15.30
2016,04,03,15,40,15.30
2016,04,03,15,41,15.40
2016,04,03,15,42,15.30
2016,04,03,15,43,15.20
2016,04,03,15,44,15.20
2016,04,03,15,45,15.10
2016,04,03,15,46,15.10
2016,04,03,15,47,14.90
2016,04,03,15,48,14.80
2016,04,03,15,49,14.70
2016,04,03,15,50,14.60
2016,04,03,15,51,14.60
2016,04,03,15,52,14.60
2016,04,03,15,53,14.60
2016,04,03,15,54,14.60
2016,04,03,15,55,14.60
2016,04,03,15,56,14.60
2016,04,03,15,57,14.70
2016,04,03,15,58,14.70
2016,04,03,15,59,14.70
2016,04,03,16,00,14.80
2016,04,03,16,01,14.80
2016,04,03,16,02,14.80
2016,04,03,16,03,14.80
2016,04,03,16,04,14.80
2016,04,03,16,05,14.80
2016,04,03,16,06,14.80
2016,04,03,16,07,14.70
2016,04,03,16,08,14.70
2016,04,03,16,09,14.70
2016,04,03,16,10,14.70
2016,04,03,16,11,14.70
2016,04,03,16,12,14.80
2016,04,03,16,13,14.80
2016,04,03,16,14,14.80
2016,04,03,16,15,14.80
2016,04,03,16,16,14.80
2016,04,03,16,17,14.80
2016,04,03,16,18,14.90
2016,04,03,16,19,14.90
2016,04,03,16,20,14.90
2016,04,03,16,21,15.00
2016,04,03,16,22,15.00
2016,04,03,16,23,15.10
2016,04,03,16,24,15.10
2016,04,03,16,25,15.20
2016,04,03,16,26,15.20
2016,04,03,16,27,15.20
2016,04,03,16,28,15.20
2016,04,03,16,29,15.20
2016,04,03,16,30,15.20
2016,04,03,16,31,15.30
2016,04,03,16,32,15.30
2016,04,03,16,33,15.30
2016,04,03,16,34,15.30
2016,04,03,16,35,15.30
2016,04,03,16,36,15.30
2016,04,03,16,37,15.40
2016,04,03,16,38,15.40
2016,04,03,16,39,15.40
2016,04,03,16,40,15.40
2016,04,03,16,41,15.40
2016,04,03,16,42,15.30
2016,04,03,16,43,15.30
2016,04,03,16,44,15.30
2016,04,03,16,45,15.40
2016,04,03,16,46,15.40
2016,04,03,16,47,15.40
2016,04,03,16,48,15.40
2016,04,03,16,49,15.40
2016,04,03,16,50,15.40
2016,04,03,16,51,15.30
2016,04,03,16,52,15.30
2016,04,03,16,53,15.30
2016,04,03,16,54,15.30
2016,04,03,16,55,15.20
2016,04,03,16,56,15.20
2016,04,03,16,57,15.20
2016,04,03,16,58,15.20
2016,04,03,16,59,15.20
2016,04,03,17,00,15.20
2016,04,03,17,01,15.20
2016,04,03,17,02,15.20
2016,04,03,17,03,15.20
2016,04,03,17,04,15.20
2016,04,03,17,05,15.20
2016,04,03,17,06,15.20
2016,04,03,17,07,15.20
2016,04,03,17,08,15.20
2016,04,03,17,09,15.20
2016,04,03,17,10,15.10
2016,04,03,17,11,15.10
2016,04,03,17,12,15.10
2016,04,03,17,13,15.00
2016,04,03,17,14,15.00
2016,04,03,17,15,15.00
2016,04,03,17,16,15.00
2016,04,03,17,17,15.00
2016,04,03,17,18,15.00
2016,04,03,17,19,15.00
2016,04,03,17,20,15.00
2016,04,03,17,21,14.90
2016,04,03,17,22,14.90
2016,04,03,17,23,14.90
2016,04,03,17,24,14.80
2016,04,03,17,25,14.80
2016,04,03,17,26,14.80
2016,04,03,17,27,14.80
2016,04,03,17,28,14.80
2016,04,03,17,29,14.70
2016,04,03,17,30,14.70
2016,04,03,17,31,14.70
2016,04,03,17,32,14.70
2016,04,03,17,33,14.70
2016,04,03,17,34,14.70
2016,04,03,17,35,14.60
2016,04,03,17,36,14.60
2016,04,03,17,37,14.60
2016,04,03,17,38,14.60
2016,04,03,17,39,14.60
2016,04,03,17,40,14.50
2016,04,03,17,41,14.40
2016,04,03,17,42,14.40
2016,04,03,17,43,14.30